| time (UTC) | temp C | wind direction | speed KPH | gust KPH | rain 1hr cm | rain 24hr cm | rain mn cm | humidity % | barometer mb |
| 20260505040026 | 16 | 274 | 9.7 | 30.6 | 0.00 | 0.00 | 0.00 | 31 | 1000.9 |
| 20260505035511 | 16 | 228 | 8.0 | 30.6 | 0.00 | 0.00 | 0.00 | 31 | 1000.9 |
| 20260505035005 | 16 | 290 | 8.0 | 25.7 | 0.00 | 0.00 | 0.00 | 31 | 1000.8 |
| 20260505034527 | 16 | 225 | 11.3 | 24.1 | 0.00 | 0.00 | 0.00 | 31 | 1000.8 |
| 20260505034008 | 16 | 252 | 14.5 | 24.1 | 0.00 | 0.00 | 0.00 | 30 | 1000.9 |
| 20260505033506 | 16 | 242 | 9.7 | 24.1 | 0.00 | 0.00 | 0.00 | 30 | 1000.9 |
| 20260505033035 | 16 | 13 | 9.7 | 24.1 | 0.00 | 0.00 | 0.00 | 30 | 1001.2 |
| 20260505032508 | 17 | 263 | 11.3 | 24.1 | 0.00 | 0.00 | 0.00 | 30 | 1001.3 |
| 20260505032009 | 17 | 240 | 12.9 | 19.3 | 0.00 | 0.00 | 0.00 | 29 | 1001.2 |
| 20260505031526 | 17 | 253 | 9.7 | 19.3 | 0.00 | 0.00 | 0.00 | 29 | 1001.1 |
| 20260505031010 | 17 | 245 | 9.7 | 25.7 | 0.00 | 0.00 | 0.00 | 29 | 1000.9 |
| 20260505030506 | 17 | 192 | 8.0 | 25.7 | 0.00 | 0.00 | 0.00 | 29 | 1000.5 |
| 20260505030029 | 17 | 253 | 12.9 | 25.7 | 0.00 | 0.00 | 0.00 | 29 | 1000.1 |
| 20260505025509 | 17 | 217 | 8.0 | 20.9 | 0.00 | 0.00 | 0.00 | 29 | 999.8 |
| 20260505025006 | 17 | 246 | 11.3 | 25.7 | 0.00 | 0.00 | 0.00 | 28 | 999.8 |
| 20260505024530 | 17 | 204 | 16.1 | 27.4 | 0.00 | 0.00 | 0.00 | 28 | 999.8 |
| 20260505024009 | 17 | 279 | 8.0 | 27.4 | 0.00 | 0.00 | 0.00 | 29 | 999.9 |
| 20260505023505 | 17 | 313 | 11.3 | 22.5 | 0.00 | 0.00 | 0.00 | 29 | 999.8 |
| 20260505023029 | 18 | 159 | 11.3 | 22.5 | 0.00 | 0.00 | 0.00 | 30 | 999.8 |
| 20260505022513 | 18 | 277 | 11.3 | 32.2 | 0.00 | 0.00 | 0.00 | 31 | 1000.0 |
| 20260505022008 | 18 | 238 | 11.3 | 32.2 | 0.00 | 0.00 | 0.00 | 31 | 999.8 |
| 20260505021529 | 18 | 286 | 9.7 | 27.4 | 0.00 | 0.00 | 0.00 | 31 | 999.6 |
| 20260505021007 | 18 | 238 | 11.3 | 29.0 | 0.00 | 0.00 | 0.00 | 31 | 999.6 |
| 20260505020506 | 18 | 217 | 8.0 | 29.0 | 0.00 | 0.00 | 0.00 | 31 | 999.6 |
| 20260505020011 | 19 | 294 | 6.4 | 41.8 | 0.00 | 0.00 | 0.00 | 31 | 999.5 |
| 20260505015506 | 19 | 92 | 14.5 | 41.8 | 0.00 | 0.00 | 0.00 | 31 | 999.4 |
| 20260505015003 | 20 | 274 | 14.5 | 30.6 | 0.00 | 0.00 | 0.00 | 32 | 999.2 |
| 20260505014512 | 20 | 258 | 9.7 | 24.1 | 0.00 | 0.00 | 0.00 | 35 | 998.9 |
| 20260505014005 | 20 | 277 | 6.4 | 11.3 | 0.00 | 0.00 | 0.00 | 36 | 998.6 |
| 20260505013459 | 20 | 297 | 1.6 | 16.1 | 0.00 | 0.00 | 0.00 | 36 | 998.4 |
| 20260505013009 | 20 | 320 | 4.8 | 16.1 | 0.00 | 0.00 | 0.00 | 36 | 998.2 |
| 20260505012507 | 20 | 331 | 6.4 | 22.5 | 0.00 | 0.00 | 0.00 | 36 | 997.9 |
| 20260505012004 | 20 | 282 | 8.0 | 22.5 | 0.00 | 0.00 | 0.00 | 36 | 997.6 |
| 20260505011519 | 21 | 17 | 9.7 | 22.5 | 0.00 | 0.00 | 0.00 | 36 | 997.4 |
| 20260505011005 | 21 | 275 | 1.6 | 14.5 | 0.00 | 0.00 | 0.00 | 36 | 997.2 |
| 20260505010503 | 21 | 298 | 4.8 | 22.5 | 0.00 | 0.00 | 0.00 | 36 | 997.1 |
| 20260505010015 | 21 | 107 | 6.4 | 25.7 | 0.00 | 0.00 | 0.00 | 35 | 997.1 |
| 20260505005507 | 21 | 280 | 12.9 | 22.5 | 0.00 | 0.00 | 0.00 | 35 | 997.0 |
| 20260505005004 | 21 | 34 | 1.6 | 17.7 | 0.00 | 0.00 | 0.00 | 36 | 997.0 |
| 20260505004529 | 22 | 276 | 8.0 | 17.7 | 0.00 | 0.00 | 0.00 | 36 | 996.9 |
| 20260505004008 | 22 | 280 | 6.4 | 24.1 | 0.00 | 0.00 | 0.00 | 36 | 996.5 |
| 20260505003505 | 22 | 276 | 11.3 | 24.1 | 0.00 | 0.00 | 0.00 | 35 | 996.4 |
| 20260505003013 | 22 | 12 | 9.7 | 27.4 | 0.00 | 0.00 | 0.00 | 36 | 996.2 |
| 20260505002507 | 23 | 334 | 8.0 | 29.0 | 0.00 | 0.00 | 0.00 | 35 | 996.1 |
| 20260505002004 | 23 | 317 | 11.3 | 29.0 | 0.00 | 0.00 | 0.00 | 33 | 996.0 |
| 20260505001520 | 23 | 238 | 11.3 | 20.9 | 0.00 | 0.00 | 0.00 | 32 | 995.7 |
| 20260505001006 | 23 | 182 | 8.0 | 17.7 | 0.00 | 0.00 | 0.00 | 33 | 995.6 |
| 20260505000507 | 23 | 215 | 9.7 | 19.3 | 0.00 | 0.00 | 0.00 | 32 | 995.6 |
| 20260505000034 | 23 | 271 | 4.8 | 19.3 | 0.00 | 0.00 | 0.00 | 33 | 995.5 |
| 20260504235507 | 23 | 252 | 3.2 | 16.1 | 0.00 | 0.00 | 0.00 | 33 | 995.5 |
| 20260504235004 | 24 | 277 | 4.8 | 19.3 | 0.00 | 0.00 | 0.00 | 32 | 995.5 |
| 20260504234536 | 24 | 262 | 4.8 | 24.1 | 0.00 | 0.00 | 0.00 | 32 | 995.6 |
| 20260504234009 | 24 | 150 | 8.0 | 22.5 | 0.00 | 0.00 | 0.00 | 31 | 995.7 |
| 20260504233505 | 24 | 269 | 9.7 | 30.6 | 0.00 | 0.00 | 0.00 | 31 | 995.8 |
| 20260504233031 | 24 | 226 | 14.5 | 30.6 | 0.00 | 0.00 | 0.00 | 30 | 995.8 |
| 20260504232510 | 25 | 92 | 12.9 | 37.0 | 0.00 | 0.00 | 0.00 | 30 | 995.9 |
| 20260504232005 | 25 | 230 | 16.1 | 48.3 | 0.00 | 0.00 | 0.00 | 30 | 995.9 |
| 20260504231533 | 25 | 209 | 20.9 | 48.3 | 0.00 | 0.00 | 0.00 | 29 | 996.0 |
| 20260504231008 | 25 | 307 | 19.3 | 45.1 | 0.00 | 0.00 | 0.00 | 30 | 995.9 |
| 20260504230503 | 26 | 239 | 16.1 | 45.1 | 0.00 | 0.00 | 0.00 | 29 | 995.9 |
| 20260504230024 | 26 | 230 | 17.7 | 29.0 | 0.00 | 0.00 | 0.00 | 29 | 995.9 |
| 20260504225507 | 25 | 260 | 9.7 | 35.4 | 0.00 | 0.00 | 0.00 | 30 | 995.9 |
| 20260504225006 | 25 | 265 | 8.0 | 37.0 | 0.00 | 0.00 | 0.00 | 30 | 996.0 |
| 20260504224532 | 25 | 219 | 20.9 | 37.0 | 0.00 | 0.00 | 0.00 | 29 | 996.1 |
| 20260504224003 | 25 | 248 | 12.9 | 40.2 | 0.00 | 0.00 | 0.00 | 30 | 996.1 |
| 20260504223504 | 25 | 251 | 16.1 | 41.8 | 0.00 | 0.00 | 0.00 | 29 | 996.0 |
| 20260504223022 | 25 | 257 | 14.5 | 41.8 | 0.00 | 0.00 | 0.00 | 29 | 996.1 |
| 20260504222502 | 26 | 180 | 17.7 | 41.8 | 0.00 | 0.00 | 0.00 | 29 | 996.1 |
| 20260504222007 | 26 | 195 | 14.5 | 35.4 | 0.00 | 0.00 | 0.00 | 29 | 996.0 |
| 20260504221530 | 25 | 244 | 14.5 | 32.2 | 0.00 | 0.00 | 0.00 | 30 | 996.0 |
| 20260504221003 | 25 | 297 | 12.9 | 49.9 | 0.00 | 0.00 | 0.00 | 29 | 996.1 |
| 20260504220509 | 26 | 240 | 24.1 | 49.9 | 0.00 | 0.00 | 0.00 | 28 | 996.1 |
| 20260504220026 | 26 | 229 | 22.5 | 38.6 | 0.00 | 0.00 | 0.00 | 27 | 996.2 |
| 20260504215503 | 26 | 241 | 14.5 | 38.6 | 0.00 | 0.00 | 0.00 | 28 | 996.1 |
| 20260504215009 | 26 | 263 | 14.5 | 40.2 | 0.00 | 0.00 | 0.00 | 28 | 996.2 |
| 20260504214534 | 26 | 296 | 24.1 | 40.2 | 0.00 | 0.00 | 0.00 | 27 | 996.3 |
| 20260504214004 | 26 | 173 | 16.1 | 35.4 | 0.00 | 0.00 | 0.00 | 27 | 996.4 |
| 20260504213511 | 26 | 237 | 16.1 | 37.0 | 0.00 | 0.00 | 0.00 | 27 | 996.3 |
| 20260504213030 | 26 | 227 | 12.9 | 37.0 | 0.00 | 0.00 | 0.00 | 26 | 996.4 |
| 20260504212515 | 27 | 246 | 11.3 | 37.0 | 0.00 | 0.00 | 0.00 | 26 | 996.4 |
| 20260504212010 | 26 | 246 | 16.1 | 40.2 | 0.00 | 0.00 | 0.00 | 26 | 996.4 |
| 20260504211530 | 26 | 244 | 16.1 | 40.2 | 0.00 | 0.00 | 0.00 | 27 | 996.6 |
| 20260504211006 | 26 | 182 | 12.9 | 40.2 | 0.00 | 0.00 | 0.00 | 27 | 996.8 |
| 20260504210513 | 26 | 212 | 19.3 | 40.2 | 0.00 | 0.00 | 0.00 | 26 | 996.8 |
| 20260504210027 | 26 | 165 | 20.9 | 41.8 | 0.00 | 0.00 | 0.00 | 26 | 996.8 |
| 20260504205503 | 26 | 217 | 17.7 | 41.8 | 0.00 | 0.00 | 0.00 | 27 | 996.8 |
| 20260504205008 | 26 | 225 | 20.9 | 41.8 | 0.00 | 0.00 | 0.00 | 26 | 996.8 |
| 20260504204604 | 26 | 173 | 12.9 | 29.0 | 0.00 | 0.00 | 0.00 | 27 | 996.8 |
| 20260504204013 | 26 | 276 | 11.3 | 32.2 | 0.00 | 0.00 | 0.00 | 27 | 996.9 |
| 20260504203509 | 26 | 194 | 16.1 | 43.5 | 0.00 | 0.00 | 0.00 | 26 | 996.9 |
| 20260504203030 | 26 | 173 | 19.3 | 43.5 | 0.00 | 0.00 | 0.00 | 26 | 996.9 |
| 20260504202509 | 26 | 194 | 14.5 | 43.5 | 0.00 | 0.00 | 0.00 | 27 | 996.9 |
| 20260504202014 | 26 | 273 | 25.7 | 45.1 | 0.00 | 0.00 | 0.00 | 28 | 997.0 |
| 20260504201531 | 25 | 235 | 9.7 | 45.1 | 0.00 | 0.00 | 0.00 | 27 | 997.1 |
| 20260504201008 | 26 | 265 | 29.0 | 49.9 | 0.00 | 0.00 | 0.00 | 26 | 997.3 |
| 20260504200512 | 26 | 126 | 14.5 | 49.9 | 0.00 | 0.00 | 0.00 | 27 | 997.3 |
| 20260504200016 | 26 | 244 | 27.4 | 38.6 | 0.00 | 0.00 | 0.00 | 26 | 997.4 |
| 20260504195509 | 26 | 276 | 22.5 | 41.8 | 0.00 | 0.00 | 0.00 | 27 | 997.4 |
| 20260504195010 | 26 | 304 | 22.5 | 43.5 | 0.00 | 0.00 | 0.00 | 26 | 997.5 |
| 20260504194514 | 25 | 189 | 19.3 | 51.5 | 0.00 | 0.00 | 0.00 | 27 | 997.4 |
| 20260504194006 | 26 | 256 | 19.3 | 51.5 | 0.00 | 0.00 | 0.00 | 26 | 997.5 |
| 20260504193510 | 25 | 219 | 17.7 | 38.6 | 0.00 | 0.00 | 0.00 | 26 | 997.6 |
| 20260504193022 | 25 | 222 | 14.5 | 48.3 | 0.00 | 0.00 | 0.00 | 27 | 997.6 |
| 20260504192511 | 25 | 215 | 14.5 | 48.3 | 0.00 | 0.00 | 0.00 | 27 | 997.7 |
| 20260504192014 | 25 | 245 | 14.5 | 38.6 | 0.00 | 0.00 | 0.00 | 26 | 997.7 |
| 20260504191529 | 25 | 342 | 16.1 | 40.2 | 0.00 | 0.00 | 0.00 | 27 | 997.6 |
| 20260504191008 | 25 | 170 | 20.9 | 40.2 | 0.00 | 0.00 | 0.00 | 26 | 997.7 |
| 20260504190509 | 25 | 253 | 17.7 | 35.4 | 0.00 | 0.00 | 0.00 | 26 | 997.8 |
| 20260504190035 | 25 | 235 | 16.1 | 37.0 | 0.00 | 0.00 | 0.00 | 26 | 997.8 |
| 20260504185511 | 25 | 223 | 9.7 | 37.0 | 0.00 | 0.00 | 0.00 | 27 | 997.7 |
| 20260504185012 | 25 | 192 | 9.7 | 41.8 | 0.00 | 0.00 | 0.00 | 26 | 997.8 |
| 20260504184520 | 25 | 217 | 19.3 | 41.8 | 0.00 | 0.00 | 0.00 | 26 | 997.9 |
| 20260504184012 | 25 | 262 | 14.5 | 38.6 | 0.00 | 0.00 | 0.00 | 27 | 997.8 |
| 20260504183514 | 25 | 105 | 16.1 | 38.6 | 0.00 | 0.00 | 0.00 | 27 | 997.9 |
| 20260504183022 | 25 | 219 | 12.9 | 33.8 | 0.00 | 0.00 | 0.00 | 27 | 997.9 |
| 20260504182509 | 25 | 248 | 17.7 | 32.2 | 0.00 | 0.00 | 0.00 | 27 | 998.0 |
| 20260504182013 | 25 | 236 | 11.3 | 35.4 | 0.00 | 0.00 | 0.00 | 26 | 998.1 |
| 20260504181530 | 25 | 247 | 19.3 | 38.6 | 0.00 | 0.00 | 0.00 | 26 | 998.0 |
| 20260504181009 | 25 | 236 | 24.1 | 38.6 | 0.00 | 0.00 | 0.00 | 26 | 998.1 |
| 20260504180514 | 25 | 150 | 8.0 | 37.0 | 0.00 | 0.00 | 0.00 | 27 | 998.1 |
| 20260504180033 | 25 | 190 | 16.1 | 37.0 | 0.00 | 0.00 | 0.00 | 27 | 998.1 |
| 20260504175508 | 25 | 289 | 14.5 | 29.0 | 0.00 | 0.00 | 0.00 | 27 | 998.1 |
| 20260504175011 | 24 | 192 | 14.5 | 40.2 | 0.00 | 0.00 | 0.00 | 27 | 998.1 |
| 20260504174523 | 24 | 247 | 11.3 | 40.2 | 0.00 | 0.00 | 0.00 | 27 | 998.1 |
| 20260504174009 | 24 | 163 | 14.5 | 40.2 | 0.00 | 0.00 | 0.00 | 27 | 998.3 |
| 20260504173509 | 24 | 134 | 12.9 | 35.4 | 0.00 | 0.00 | 0.00 | 27 | 998.3 |
| 20260504173025 | 24 | 186 | 14.5 | 33.8 | 0.00 | 0.00 | 0.00 | 27 | 998.3 |
| 20260504172509 | 24 | 263 | 12.9 | 30.6 | 0.00 | 0.00 | 0.00 | 27 | 998.4 |
| 20260504172015 | 24 | 213 | 19.3 | 35.4 | 0.00 | 0.00 | 0.00 | 26 | 998.4 |
| 20260504171537 | 23 | 247 | 17.7 | 37.0 | 0.00 | 0.00 | 0.00 | 27 | 998.5 |
| 20260504171010 | 23 | 236 | 12.9 | 37.0 | 0.00 | 0.00 | 0.00 | 26 | 998.6 |
| 20260504170502 | 23 | 254 | 14.5 | 35.4 | 0.00 | 0.00 | 0.00 | 27 | 998.8 |
| 20260504151006 | 21 | 186 | 17.7 | 33.8 | 0.00 | 0.00 | 0.00 | 30 | 1000.4 |
| 20260504150503 | 21 | 249 | 12.9 | 30.6 | 0.00 | 0.00 | 0.00 | 31 | 1000.5 |
| 20260504141002 | 19 | 245 | 11.3 | 24.1 | 0.00 | 0.00 | 0.00 | 36 | 1001.1 |
| 20260504140502 | 19 | 204 | 8.0 | 20.9 | 0.00 | 0.00 | 0.00 | 37 | 1001.2 |
| 20260504130509 | 14 | 232 | 1.6 | 9.7 | 0.00 | 0.00 | 0.00 | 56 | 1001.9 |
| 20260504110502 | 7 | 223 | 1.6 | 3.2 | 0.00 | 0.00 | 0.00 | 80 | 1002.1 |
| 20260504100502 | 6 | 250 | 0.0 | 3.2 | 0.00 | 0.00 | 0.00 | 81 | 1002.2 |
| 20260504082003 | 7 | 232 | 0.0 | 3.2 | 0.00 | 0.00 | 0.00 | 82 | 1003.3 |
| 20260504081527 | 7 | 232 | 1.6 | 3.2 | 0.00 | 0.00 | 0.00 | 82 | 1003.4 |
| 20260504081003 | 7 | 232 | 0.0 | 3.2 | 0.00 | 0.00 | 0.00 | 81 | 1003.4 |
| 20260504080503 | 7 | 232 | 1.6 | 3.2 | 0.00 | 0.00 | 0.00 | 81 | 1003.3 |
| 20260504050506 | 10 | 250 | 1.6 | 3.2 | 0.00 | 0.00 | 0.00 | 76 | 1004.6 |
| 20260504045505 | 10 | 250 | 1.6 | 3.2 | 0.00 | 0.00 | 0.00 | 75 | 1004.7 |
| 20260504045009 | 10 | 250 | 0.0 | 3.2 | 0.00 | 0.00 | 0.00 | 74 | 1004.7 |
| 20260504044538 | 10 | 250 | 1.6 | 3.2 | 0.00 | 0.00 | 0.00 | 74 | 1004.7 |
| 20260504044005 | 10 | 250 | 1.6 | 3.2 | 0.00 | 0.00 | 0.00 | 75 | 1004.7 |
| 20260504043509 | 10 | 250 | 0.0 | 3.2 | 0.00 | 0.00 | 0.00 | 74 | 1004.7 |
| 20260504043016 | 10 | 250 | 0.0 | 3.2 | 0.00 | 0.00 | 0.00 | 74 | 1004.6 |
| 20260504042506 | 10 | 250 | 0.0 | 3.2 | 0.00 | 0.00 | 0.00 | 73 | 1004.7 |
| 20260504042010 | 11 | 250 | 0.0 | 3.2 | 0.00 | 0.00 | 0.00 | 73 | 1004.7 |
| 20260504041515 | 11 | 250 | 0.0 | 3.2 | 0.00 | 0.00 | 0.00 | 72 | 1004.7 |
| 20260504041006 | 11 | 250 | 0.0 | 3.2 | 0.00 | 0.00 | 0.00 | 71 | 1004.6 |
| 20260504040507 | 11 | 250 | 0.0 | 3.2 | 0.00 | 0.00 | 0.00 | 71 | 1004.6 |